星链-32198 (STARLINK-32198)

导读

STARLINK-32198是美国SpaceX公司于2024年7月28日发射的星链低轨互联网通信卫星,隶属于星链全球卫星互联网星座项目。卫星运行于近地轨道,依托低轨部署优势大幅降低信号传输延迟,能为全球偏远地区、海洋等传统网络覆盖盲区提供高速互联网接入服务,支持视频会议、在线游戏等高实时性应用,是星链大规模星座组网建设的组成单元,助力实现全球连续稳定的宽带覆盖。

基本信息
目录编号:
60321
目录名称:
STARLINK-32198
国际标识:
2024-133W
轨道中心:
EARTH
卫星名称:
星链-32198 (STARLINK-32198)
卫星全名:
星链-32198 (STARLINK-32198)
卫星状态:
在轨 (已飞行769 天)
发射日期:
2024-07-28 UTC
国别 :
美国 (US)
星等 :
--
轨道信息
数据来源 国际轨道数据
星历时间: 2026-09-04T20:40:29+0800
21小时前
查看轨道信息
半长轴: 6840.879km
偏心率: 0.0001486
轨道倾角: 53.160°
近地点辐角 76.880°
升交点赤经 184.082°
平近点角 283.236°
近地点: 461.725km
远地点: 463.759km
周期: 93.849分钟
每日圈数: 15.34387
详细信息
卫星平台:
Starlink v2.0 mini
运营商:
太空探索技术公司
运营商所在国:
美国
制造商(研发单位):
太空探索技术公司
制造商所在国:
美国
使用方式:
暂无
卫星简介
星链(Starlink)计划是由太空探索技术公司(SpaceX)提出的一个巨型低轨卫星互联网星座项目,计划在2019年至2024年间在太空搭建由约1.2万颗卫星组成的“星链”网络,其中1584颗将部署在地球上空550千米处的近地轨道,并从2020年开始工作。该卫星仍在工作。
2D轨道图
3D轨道图
轨道高度分析图
轨道倾角分析图
轨道综合分析图
查看轨道综合分析图